ITY238 LIMJ-LIPE

Flight info

Callsign ITY238
Flight time 0h 30m
Altitude 19000
Route GEN DCT BEROK/N0372F180 DCT NIGSO
Aircraft A320/M-SDE3FGHIRWY/LB1

Departure

Time 2026-04-21 20:40
Airport Genoa Cristoforo Colombo Airport (LIMJ)

Arrival

Time 2026-04-21 21:10
Airport Bologna Guglielmo Marconi Airport (LIPE)
Time Latitude Longitude Altitude Speed Heading
2026-04-21 20:27 44.41381 8.85173 10 ft 0 kts 15°
2026-04-21 20:33 44.41360 8.85165 11 ft 4 kts 15°
2026-04-21 20:33 44.41336 8.85152 9 ft 4 kts 45°
2026-04-21 20:33 44.41325 8.85122 12 ft 4 kts 93°
2026-04-21 20:33 44.41327 8.85105 11 ft 1 kts 105°
2026-04-21 20:34 44.41327 8.85103 11 ft 0 kts 105°
2026-04-21 20:37 44.41327 8.85104 11 ft 1 kts 105°
2026-04-21 20:38 44.41317 8.85164 10 ft 12 kts 102°
2026-04-21 20:38 44.41264 8.85272 9 ft 14 kts 154°
2026-04-21 20:38 44.41171 8.85268 9 ft 12 kts 194°
2026-04-21 20:38 44.41092 8.85237 9 ft 12 kts 196°
2026-04-21 20:39 44.41018 8.85194 6 ft 11 kts 213°
2026-04-21 20:39 44.41007 8.85153 6 ft 0 kts 283°
2026-04-21 20:39 44.41008 8.85146 6 ft 6 kts 283°
2026-04-21 20:39 44.41083 8.84751 11 ft 79 kts 287°
2026-04-21 20:40 44.41287 8.83739 11 ft 136 kts 285°
2026-04-21 20:40 44.41578 8.82260 208 ft 163 kts 285°
2026-04-21 20:40 44.41881 8.80764 873 ft 162 kts 285°
2026-04-21 20:40 44.42047 8.79208 1458 ft 165 kts 259°
2026-04-21 20:41 44.41472 8.77785 1910 ft 180 kts 220°
2026-04-21 20:41 44.40296 8.77042 2386 ft 193 kts 186°
2026-04-21 20:41 44.38982 8.77343 2949 ft 196 kts 151°
2026-04-21 20:41 44.37915 8.78524 3564 ft 197 kts 138°
2026-04-21 20:42 44.36885 8.79805 4181 ft 199 kts 138°
2026-04-21 20:42 44.35842 8.81090 4779 ft 201 kts 140°
2026-04-21 20:42 44.34610 8.82020 5336 ft 204 kts 165°
2026-04-21 20:42 44.33196 8.82170 5922 ft 205 kts 185°
2026-04-21 20:43 44.31769 8.82030 6497 ft 207 kts 185°
2026-04-21 20:43 44.30326 8.81892 7052 ft 209 kts 185°
2026-04-21 20:43 44.28843 8.81752 7418 ft 223 kts 186°
2026-04-21 20:43 44.27233 8.81599 7778 ft 237 kts 186°
2026-04-21 20:44 44.25604 8.81454 8474 ft 239 kts 186°
2026-04-21 20:44 44.23861 8.81297 8971 ft 254 kts 187°
2026-04-21 20:44 44.22104 8.81136 9649 ft 260 kts 187°
2026-04-21 20:44 44.20286 8.80971 10348 ft 264 kts 187°
2026-04-21 20:45 44.18435 8.80802 10865 ft 270 kts 187°
2026-04-21 20:45 44.16553 8.80633 10998 ft 270 kts 187°
2026-04-21 20:45 44.14680 8.80466 11027 ft 270 kts 187°
2026-04-21 20:45 44.12821 8.80235 11023 ft 267 kts 198°
2026-04-21 20:46 44.11256 8.79019 11032 ft 252 kts 234°
2026-04-21 20:46 44.10547 8.76905 11034 ft 243 kts 266°
2026-04-21 20:46 44.10706 8.74613 11027 ft 240 kts 292°
2026-04-21 20:46 44.11651 8.72719 11029 ft 241 kts 320°
2026-04-21 20:47 44.13168 8.71738 11033 ft 247 kts 349°
2026-04-21 20:47 44.14900 8.71815 11039 ft 253 kts
2026-04-21 20:47 44.16666 8.72072 11166 ft 260 kts
2026-04-21 20:47 44.18479 8.72376 11824 ft 267 kts
2026-04-21 20:48 44.20226 8.73306 12537 ft 278 kts 25°
2026-04-21 20:48 44.21810 8.75120 12771 ft 309 kts 44°
2026-04-21 20:48 44.23270 8.77431 12936 ft 333 kts 45°
2026-04-21 20:48 44.24586 8.80227 13071 ft 362 kts 64°
2026-04-21 20:49 44.25068 8.83766 13463 ft 380 kts 90°
2026-04-21 20:49 44.24894 8.87464 14184 ft 383 kts 92°
2026-04-21 20:49 44.24703 8.91185 14773 ft 388 kts 92°
2026-04-21 20:49 44.24512 8.94969 15335 ft 393 kts 91°
2026-04-21 20:50 44.24321 8.98784 15887 ft 398 kts 91°
2026-04-21 20:50 44.23993 9.02656 16436 ft 406 kts 103°
2026-04-21 20:50 44.22886 9.06298 16948 ft 413 kts 123°
2026-04-21 20:50 44.21150 9.09512 17505 ft 418 kts 127°
2026-04-21 20:51 44.19827 9.13132 17990 ft 424 kts 103°
2026-04-21 20:51 44.19467 9.17200 18473 ft 425 kts 88°
2026-04-21 20:51 44.19512 9.21331 18847 ft 426 kts 83°
2026-04-21 20:51 44.19676 9.25449 18953 ft 427 kts 83°
2026-04-21 20:52 44.19816 9.29573 18976 ft 427 kts 84°
2026-04-21 20:52 44.19868 9.33733 18984 ft 435 kts 86°
2026-04-21 20:52 44.19826 9.38044 18984 ft 454 kts 88°
2026-04-21 20:52 44.19706 9.42527 18980 ft 471 kts 90°
2026-04-21 20:53 44.19539 9.47090 18999 ft 485 kts 90°
2026-04-21 20:53 44.19350 9.51835 18980 ft 496 kts 90°
2026-04-21 20:53 44.19163 9.56667 18984 ft 499 kts 90°
2026-04-21 20:53 44.18992 9.61486 18981 ft 500 kts 90°
2026-04-21 20:54 44.18839 9.66323 18981 ft 500 kts 90°
2026-04-21 20:54 44.18696 9.71155 18984 ft 498 kts 89°
2026-04-21 20:54 44.18557 9.75992 18982 ft 499 kts 89°
2026-04-21 20:54 44.18416 9.80809 18979 ft 499 kts 90°
2026-04-21 20:55 44.18269 9.85660 18985 ft 500 kts 90°
2026-04-21 20:55 44.18115 9.90497 18976 ft 501 kts 90°
2026-04-21 20:55 44.17953 9.95345 18970 ft 501 kts 90°
2026-04-21 20:55 44.17789 10.00198 18985 ft 502 kts 90°
2026-04-21 20:56 44.17626 10.05047 18982 ft 502 kts 90°
2026-04-21 20:56 44.17461 10.09900 18990 ft 502 kts 90°
2026-04-21 20:56 44.17292 10.14749 18991 ft 495 kts 90°
2026-04-21 20:56 44.17120 10.19466 18981 ft 481 kts 90°
2026-04-21 20:57 44.16956 10.24111 18719 ft 478 kts 89°
2026-04-21 20:57 44.17113 10.28719 17840 ft 475 kts 78°
2026-04-21 20:57 44.17814 10.33170 17080 ft 469 kts 68°
2026-04-21 20:57 44.18991 10.37348 16394 ft 459 kts 59°
2026-04-21 20:58 44.20574 10.41157 15701 ft 448 kts 50°
2026-04-21 20:58 44.22499 10.44506 15061 ft 438 kts 43°
2026-04-21 20:58 44.24516 10.47661 14431 ft 434 kts 44°
2026-04-21 20:58 44.26508 10.50791 13802 ft 430 kts 44°
2026-04-21 20:59 44.28474 10.53903 13151 ft 425 kts 45°
2026-04-21 20:59 44.30406 10.56974 12554 ft 417 kts 45°
2026-04-21 20:59 44.32305 10.59996 11964 ft 411 kts 46°
2026-04-21 20:59 44.34155 10.62936 11432 ft 405 kts 46°
2026-04-21 21:00 44.36035 10.65915 11328 ft 403 kts 46°
2026-04-21 21:00 44.37765 10.69011 11200 ft 406 kts 55°
2026-04-21 21:00 44.38971 10.72461 11041 ft 394 kts 68°
2026-04-21 21:00 44.39611 10.76105 10914 ft 379 kts 81°
2026-04-21 21:01 44.39846 10.79699 10789 ft 363 kts 84°
2026-04-21 21:01 44.40063 10.83141 10666 ft 348 kts 81°
2026-04-21 21:01 44.40668 10.86310 10537 ft 326 kts 63°
2026-04-21 21:01 44.41846 10.88953 10437 ft 328 kts 47°
2026-04-21 21:02 44.43525 10.91069 10160 ft 319 kts 30°
2026-04-21 21:02 44.45449 10.92450 9700 ft 303 kts 22°
2026-04-21 21:02 44.47318 10.93645 9234 ft 291 kts 24°
2026-04-21 21:02 44.49130 10.94811 9048 ft 280 kts 24°
2026-04-21 21:03 44.50920 10.95579 9063 ft 263 kts
2026-04-21 21:03 44.52716 10.95418 9066 ft 258 kts 344°
2026-04-21 21:03 44.54343 10.94389 8728 ft 258 kts 324°
2026-04-21 21:03 44.55647 10.92653 8026 ft 260 kts 315°
2026-04-21 21:04 44.57151 10.91305 7336 ft 256 kts 348°
2026-04-21 21:04 44.58898 10.91248 6678 ft 253 kts 14°
2026-04-21 21:04 44.60537 10.92101 6024 ft 250 kts 31°
2026-04-21 21:04 44.62067 10.93243 5385 ft 249 kts 30°
2026-04-21 21:05 44.63540 10.94412 5060 ft 232 kts 45°
2026-04-21 21:05 44.64418 10.96205 4906 ft 217 kts 77°
2026-04-21 21:05 44.64440 10.98270 4706 ft 213 kts 108°
2026-04-21 21:05 44.63832 11.00155 4447 ft 213 kts 116°
2026-04-21 21:06 44.63159 11.02007 4169 ft 212 kts 116°
2026-04-21 21:06 44.62499 11.03846 3886 ft 211 kts 116°
2026-04-21 21:06 44.61843 11.05682 3603 ft 210 kts 116°
2026-04-21 21:06 44.61192 11.07509 3333 ft 208 kts 116°
2026-04-21 21:07 44.60546 11.09318 3047 ft 206 kts 116°
2026-04-21 21:07 44.59907 11.11107 2770 ft 204 kts 116°
2026-04-21 21:07 44.59278 11.12870 2489 ft 198 kts 116°
2026-04-21 21:07 44.58674 11.14557 2229 ft 191 kts 116°
2026-04-21 21:08 44.58083 11.16208 2006 ft 186 kts 116°
2026-04-21 21:08 44.57511 11.17808 1739 ft 181 kts 115°
2026-04-21 21:08 44.56958 11.19351 1465 ft 171 kts 116°
2026-04-21 21:08 44.56440 11.20795 1246 ft 153 kts 116°
2026-04-21 21:09 44.55986 11.22060 1036 ft 143 kts 115°
2026-04-21 21:09 44.55543 11.23299 831 ft 138 kts 115°
2026-04-21 21:09 44.55119 11.24497 644 ft 137 kts 114°
2026-04-21 21:09 44.54696 11.25707 456 ft 136 kts 117°
2026-04-21 21:10 44.54251 11.26895 268 ft 136 kts 116°
2026-04-21 21:10 44.53973 11.27675 165 ft 135 kts 115°
2026-04-21 21:10 44.53592 11.28766 133 ft 102 kts 117°
2026-04-21 21:10 44.53348 11.29427 136 ft 40 kts 117°
2026-04-21 21:11 44.53211 11.29641 135 ft 27 kts 139°
2026-04-21 21:11 44.53066 11.29772 131 ft 16 kts 151°
2026-04-21 21:11 44.53033 11.29742 131 ft 4 kts 305°
2026-04-21 21:11 44.53043 11.29717 131 ft 2 kts 296°
2026-04-21 21:12 44.53049 11.29700 131 ft 5 kts 296°
2026-04-21 21:12 44.53077 11.29595 134 ft 13 kts 263°
2026-04-21 21:12 44.53077 11.29465 136 ft 8 kts 267°
2026-04-21 21:12 44.53031 11.29417 135 ft 0 kts 208°
2026-04-21 21:14 44.53030 11.29417 135 ft 1 kts 208°
2026-04-21 21:15 44.53029 11.29416 135 ft 0 kts 208°